ソニア彗星

C/2020 J1 ( SONEAR )

English version
Home page
Updated on September 18, 2021

---------------------------------------------------------------------

・ プロフィール

発見日 2020年5月1日
発見光度 17.0等
発見者 Southern Observatory for Near Earth Research (SONEAR) at Oliveira, Brazil

・ 写真集

・ 軌道要素

Epoch 2021 Apr. 16.0 TT = JDT 2459320.5
T 2021 Apr. 18.56255 TT                                 Rudenko
q   3.3551242            (2000.0)            P               Q
z  -0.0000679      Peri.  341.74644     -0.47273264     -0.76102662
 +/-0.0000009      Node   226.58202     -0.71295053     +0.03401170
e   1.0002278      Incl.  142.29336     -0.51790480     +0.64782844
From 675 observations 2020 May 1-2021 Aug. 22, mean residual 0".6.

・ 星図

・ 光度変化

        m1 = 2.5 + 5 logΔ + 15.0 log r(t - 120)

---------------------------------------------------------------------

軌道要素はM.P.E.C. 2021-R75に掲載されたものです。
星図はステラナビゲータ Ver.10 (アストロアーツ) で作成したものです。
光度グラフはComet for Windowsで作成したものです。

---------------------------------------------------------------------

Copyright(C) Seiichi Yoshida (comet@aerith.net). All rights reserved.